This is the latest recevied weather packets stored in our database for station/object OK1TBM-13. If no packets are shown the sender has not sent any weather packets the latest 10 day(s).
| Time | Temp. | Humidity | Pressure | Rain* | Wind** | Luminosity | Snow |
|---|---|---|---|---|---|---|---|
| 1788546600 | 23.33° C | 71% | 1009.8 hPa | 0 mm | - | 0 W/m² | - |
| 1788546300 | 23.89° C | 70% | 1009.8 hPa | 0 mm | - | 0 W/m² | - |
| 1788546001 | 23.89° C | 69% | 1009.8 hPa | 0 mm | - | 0 W/m² | - |
| 1788545701 | 23.89° C | 69% | 1009.8 hPa | 0 mm | - | 0 W/m² | - |
| 1788545400 | 24.44° C | 68% | 1009.8 hPa | 0 mm | - | 0 W/m² | - |
| 1788544802 | 24.44° C | 68% | 1009.8 hPa | 0 mm | - | 0 W/m² | - |
| 1788544502 | 24.44° C | 66% | 1009.8 hPa | 0 mm | - | 0 W/m² | - |
| 1788544201 | 25° C | 65% | 1009.8 hPa | 0 mm | - | 0 W/m² | - |
| 1788543901 | 25° C | 65% | 1009.8 hPa | 0 mm | - | 0 W/m² | - |
| 1788543601 | 25.56° C | 63% | 1009.8 hPa | 0 mm | - | 1 W/m² | - |
| 1788543307 | 25.56° C | 62% | 1009.5 hPa | 0 mm | - | 2 W/m² | - |
| 1788543001 | 26.11° C | 59% | 1009.5 hPa | 0 mm | - | 3 W/m² | - |
| 1788542701 | 26.11° C | 55% | 1009.5 hPa | 0 mm | - | 7 W/m² | - |
| 1788542401 | 26.67° C | 55% | 1009.5 hPa | 0 mm | - | 12 W/m² | - |
| 1788541800 | 26.67° C | 53% | 1009.5 hPa | 0 mm | - | 25 W/m² | - |
| 1788541507 | 27.78° C | 51% | 1009.5 hPa | 0 mm | - | 28 W/m² | - |
| 1788541201 | 28.33° C | 50% | 1009.1 hPa | 0 mm | - | 32 W/m² | - |
| 1788540900 | 27.78° C | 49% | 1009.1 hPa | 0 mm | - | 38 W/m² | - |
| 1788540600 | 28.33° C | 49% | 1009.1 hPa | 0 mm | - | 44 W/m² | - |
| 1788539701 | 28.33° C | 47% | 1009.5 hPa | 0 mm | - | 79 W/m² | - |
| 1788539401 | 28.33° C | 47% | 1009.5 hPa | 0 mm | - | 65 W/m² | - |
| 1788539101 | 28.33° C | 47% | 1009.5 hPa | 0 mm | - | 107 W/m² | - |
| 1788538803 | 28.33° C | 47% | 1009.5 hPa | 0 mm | - | 121 W/m² | - |
| 1788538201 | 28.33° C | 47% | 1009.8 hPa | 0 mm | - | 132 W/m² | - |
| 1788537903 | 28.33° C | 47% | 1009.8 hPa | 0 mm | - | 140 W/m² | - |
* Rain latest hour (hover to see other rain measurements)
** Current wind speed in m/s (hover to see current wind gust speed)